IBE6174 MROC-KMIA

Flight info

Callsign IBE6174
Flight time N/A
Altitude 33000
Route NANJ3R RADON UB767 GCM DCT IKBIX SNDBR3
Aircraft A319/M-SDE3FGHIRWY/LB1

Departure

Time 2026-05-06 16:56
Airport Juan Santamaría International Airport (MROC)

Arrival

Time N/A
Airport Miami International Airport (KMIA)
Time Latitude Longitude Altitude Speed Heading
2026-05-06 16:38 9.99694 -84.20497 3010 ft 0 kts 342°
2026-05-06 16:47 9.99692 -84.20496 3010 ft 3 kts 342°
2026-05-06 16:47 9.99668 -84.20486 3010 ft 4 kts 321°
2026-05-06 16:47 9.99652 -84.20466 3014 ft 4 kts 284°
2026-05-06 16:48 9.99652 -84.20445 3014 ft 1 kts 250°
2026-05-06 16:50 9.99647 -84.20458 3011 ft 5 kts 250°
2026-05-06 16:50 9.99629 -84.20507 3009 ft 10 kts 250°
2026-05-06 16:50 9.99610 -84.20557 3007 ft 12 kts 249°
2026-05-06 16:51 9.99567 -84.20673 3002 ft 16 kts 249°
2026-05-06 16:51 9.99525 -84.20785 2997 ft 19 kts 249°
2026-05-06 16:51 9.99485 -84.20892 2992 ft 18 kts 249°
2026-05-06 16:51 9.99438 -84.21015 2986 ft 20 kts 249°
2026-05-06 16:52 9.99388 -84.21149 2979 ft 22 kts 249°
2026-05-06 16:52 9.99337 -84.21286 2973 ft 22 kts 250°
2026-05-06 16:52 9.99288 -84.21420 2967 ft 21 kts 249°
2026-05-06 16:52 9.99244 -84.21536 2960 ft 17 kts 249°
2026-05-06 16:53 9.99197 -84.21662 2957 ft 21 kts 250°
2026-05-06 16:53 9.99145 -84.21805 2941 ft 22 kts 249°
2026-05-06 16:53 9.99094 -84.21942 2942 ft 19 kts 259°
2026-05-06 16:53 9.99098 -84.22089 2938 ft 23 kts 249°
2026-05-06 16:54 9.99019 -84.22204 2935 ft 21 kts 187°
2026-05-06 16:54 9.98926 -84.22129 2934 ft 17 kts 84°
2026-05-06 16:54 9.98934 -84.22104 2927 ft 0 kts 66°
2026-05-06 16:55 9.98935 -84.22103 2927 ft 0 kts 70°
2026-05-06 16:55 9.98950 -84.22061 2930 ft 31 kts 70°
2026-05-06 16:55 9.99111 -84.21626 2950 ft 98 kts 69°
2026-05-06 16:56 9.99413 -84.20809 2996 ft 148 kts 70°
2026-05-06 16:56 9.99824 -84.19730 3261 ft 171 kts 72°
2026-05-06 16:56 10.00505 -84.18756 3967 ft 175 kts 31°
2026-05-06 16:56 10.01708 -84.18621 4621 ft 185 kts 346°
2026-05-06 16:57 10.02917 -84.19240 4930 ft 207 kts 334°
2026-05-06 16:57 10.04166 -84.20105 5058 ft 228 kts 328°
2026-05-06 16:57 10.05397 -84.21219 5243 ft 248 kts 305°
2026-05-06 16:57 10.06066 -84.22893 5530 ft 269 kts 289°
2026-05-06 16:58 10.06663 -84.24757 6011 ft 283 kts 291°
2026-05-06 16:58 10.07331 -84.26660 6707 ft 288 kts 291°
2026-05-06 16:58 10.08040 -84.28595 7288 ft 297 kts 292°
2026-05-06 16:58 10.08785 -84.30559 7989 ft 299 kts 295°
2026-05-06 16:59 10.09948 -84.32298 8645 ft 299 kts 320°
2026-05-06 16:59 10.11060 -84.33112 9067 ft 298 kts 336°
2026-05-06 16:59 10.13033 -84.33682 9690 ft 295 kts
2026-05-06 16:59 10.15044 -84.33412 10241 ft 296 kts 22°
2026-05-06 17:00 10.17020 -84.32601 10358 ft 317 kts 27°
2026-05-06 17:00 10.19104 -84.31674 10484 ft 338 kts 27°
2026-05-06 17:00 10.21294 -84.30682 10822 ft 349 kts 27°
2026-05-06 17:00 10.23534 -84.29674 11312 ft 355 kts 27°
2026-05-06 17:01 10.25804 -84.28665 11885 ft 358 kts 26°
2026-05-06 17:01 10.28099 -84.27654 12441 ft 361 kts 27°
2026-05-06 17:01 10.30391 -84.26599 13005 ft 363 kts 28°
2026-05-06 17:01 10.32676 -84.25486 13557 ft 365 kts 29°
2026-05-06 17:02 10.34963 -84.24340 14054 ft 368 kts 30°
2026-05-06 17:02 10.37262 -84.23179 14518 ft 370 kts 29°
2026-05-06 17:02 10.39580 -84.22015 14967 ft 373 kts 29°
2026-05-06 17:02 10.41921 -84.20850 15430 ft 376 kts 28°
2026-05-06 17:03 10.44281 -84.19684 15887 ft 378 kts 28°
2026-05-06 17:03 10.46657 -84.18513 16347 ft 381 kts 28°
2026-05-06 17:03 10.49020 -84.17350 16794 ft 384 kts 28°
2026-05-06 17:03 10.51429 -84.16162 17247 ft 386 kts 28°
2026-05-06 17:04 10.53858 -84.14963 17680 ft 390 kts 28°
2026-05-06 17:04 10.56305 -84.13752 18109 ft 393 kts 28°
2026-05-06 17:04 10.58771 -84.12530 18507 ft 396 kts 28°
2026-05-06 17:04 10.61257 -84.11302 18910 ft 398 kts 28°
2026-05-06 17:05 10.63755 -84.10068 19311 ft 401 kts 28°
2026-05-06 17:05 10.66267 -84.08828 19721 ft 403 kts 28°
2026-05-06 17:05 10.68795 -84.07583 20142 ft 405 kts 27°
2026-05-06 17:05 10.71452 -84.06589 20515 ft 410 kts 17°
2026-05-06 17:06 10.74246 -84.05936 20890 ft 413 kts 15°
2026-05-06 17:06 10.77058 -84.05299 21253 ft 415 kts 15°
2026-05-06 17:06 10.79885 -84.04658 21614 ft 417 kts 15°
2026-05-06 17:06 10.82723 -84.04011 21963 ft 419 kts 15°
2026-05-06 17:07 10.85574 -84.03360 22302 ft 421 kts 15°
2026-05-06 17:07 10.88439 -84.02708 22634 ft 423 kts 15°
2026-05-06 17:07 10.91319 -84.02049 22955 ft 425 kts 15°
2026-05-06 17:07 10.94214 -84.01388 23269 ft 427 kts 15°
2026-05-06 17:08 10.97118 -84.00725 23582 ft 429 kts 15°
2026-05-06 17:08 11.00037 -84.00057 23833 ft 431 kts 15°
2026-05-06 17:08 11.02969 -83.99387 24086 ft 433 kts 15°
2026-05-06 17:08 11.05914 -83.98714 24339 ft 435 kts 15°
2026-05-06 17:09 11.08871 -83.98038 24595 ft 437 kts 15°
2026-05-06 17:09 11.11842 -83.97358 24844 ft 438 kts 15°
2026-05-06 17:09 11.14825 -83.96677 25095 ft 440 kts 15°
2026-05-06 17:09 11.17819 -83.95995 25337 ft 442 kts 15°
2026-05-06 17:10 11.20827 -83.95310 25583 ft 444 kts 15°
2026-05-06 17:10 11.23847 -83.94619 25809 ft 446 kts 15°
2026-05-06 17:10 11.26835 -83.93934 26038 ft 447 kts 15°
2026-05-06 17:10 11.29875 -83.93240 26268 ft 449 kts 15°
2026-05-06 17:11 11.32926 -83.92542 26496 ft 450 kts 15°
2026-05-06 17:11 11.35991 -83.91840 26723 ft 452 kts 15°
2026-05-06 17:11 11.39064 -83.91135 26955 ft 453 kts 15°
2026-05-06 17:11 11.42146 -83.90428 27192 ft 455 kts 15°
2026-05-06 17:12 11.45237 -83.89718 27416 ft 456 kts 15°
2026-05-06 17:12 11.48338 -83.89004 27636 ft 458 kts 15°
2026-05-06 17:12 11.51449 -83.88287 27849 ft 459 kts 15°
2026-05-06 17:12 11.54572 -83.87569 28054 ft 461 kts 14°
2026-05-06 17:13 11.57705 -83.86852 28276 ft 462 kts 14°
2026-05-06 17:13 11.60849 -83.86133 28480 ft 464 kts 14°
2026-05-06 17:13 11.64002 -83.85413 28698 ft 465 kts 15°
2026-05-06 17:13 11.67158 -83.84690 28905 ft 466 kts 15°
2026-05-06 17:14 11.70323 -83.83964 29095 ft 467 kts 15°
2026-05-06 17:14 11.73498 -83.83234 29273 ft 469 kts 15°
2026-05-06 17:14 11.76684 -83.82500 29460 ft 470 kts 15°
2026-05-06 17:14 11.79872 -83.81765 29731 ft 469 kts 15°
2026-05-06 17:15 11.83060 -83.81029 30012 ft 469 kts 14°
2026-05-06 17:15 11.86238 -83.80297 30252 ft 468 kts 14°
2026-05-06 17:15 11.89418 -83.79565 30477 ft 468 kts 14°
2026-05-06 17:15 11.92595 -83.78835 30707 ft 468 kts 14°
2026-05-06 17:16 11.95730 -83.78117 30907 ft 468 kts 14°
2026-05-06 17:16 11.98906 -83.77388 31147 ft 468 kts 14°
2026-05-06 17:16 12.02084 -83.76691 31421 ft 467 kts 13°
2026-05-06 17:16 12.05269 -83.76065 31678 ft 466 kts 12°
2026-05-06 17:17 12.08464 -83.75491 31923 ft 466 kts 11°
2026-05-06 17:17 12.11662 -83.74940 32177 ft 466 kts 11°
2026-05-06 17:17 12.14856 -83.74387 32429 ft 466 kts 11°
2026-05-06 17:17 12.18048 -83.73818 32684 ft 465 kts 11°
2026-05-06 17:18 12.21233 -83.73233 32901 ft 465 kts 12°
2026-05-06 17:18 12.27591 -83.72034 32982 ft 464 kts 12°
2026-05-06 17:19 12.33942 -83.70842 32979 ft 463 kts 12°
2026-05-06 17:19 12.40272 -83.69660 32986 ft 462 kts 12°
2026-05-06 17:20 12.46602 -83.68481 32981 ft 462 kts 11°
2026-05-06 17:20 12.52931 -83.67302 32982 ft 462 kts 12°
2026-05-06 17:21 12.59255 -83.66121 32985 ft 462 kts 12°
2026-05-06 17:21 12.65578 -83.64941 32985 ft 462 kts 12°
2026-05-06 17:22 12.71899 -83.63762 32979 ft 461 kts 12°
2026-05-06 17:22 12.78212 -83.62574 32988 ft 461 kts 12°
2026-05-06 17:23 12.84525 -83.61397 32988 ft 461 kts 12°
2026-05-06 17:23 12.90831 -83.60223 32989 ft 460 kts 11°
2026-05-06 17:24 12.97132 -83.59043 32982 ft 460 kts 12°
2026-05-06 17:24 13.03429 -83.57860 32975 ft 460 kts 12°
2026-05-06 17:25 13.09722 -83.56681 32972 ft 460 kts 12°
2026-05-06 17:25 13.16015 -83.55499 32960 ft 460 kts 12°
2026-05-06 17:26 13.22260 -83.54323 32958 ft 459 kts 12°
2026-05-06 17:26 13.28550 -83.53136 32954 ft 459 kts 12°
2026-05-06 17:27 13.34835 -83.51962 32959 ft 459 kts 12°
2026-05-06 17:27 13.41112 -83.50788 32958 ft 458 kts 12°
2026-05-06 17:28 13.47387 -83.49604 32948 ft 458 kts 12°
2026-05-06 17:28 13.53659 -83.48422 32947 ft 458 kts 12°
2026-05-06 17:29 13.59936 -83.47240 32943 ft 458 kts 12°
2026-05-06 17:29 13.66209 -83.46064 32944 ft 458 kts 12°
2026-05-06 17:30 13.72488 -83.44883 32941 ft 459 kts 12°
2026-05-06 17:30 13.78763 -83.43699 32946 ft 458 kts 12°
2026-05-06 17:31 13.85039 -83.42508 32948 ft 459 kts 12°
2026-05-06 17:31 13.91311 -83.41324 32946 ft 458 kts 12°
2026-05-06 17:32 13.97595 -83.40139 32947 ft 459 kts 12°
2026-05-06 17:32 14.03865 -83.38926 32948 ft 458 kts 15°
2026-05-06 17:33 14.09870 -83.36828 32947 ft 455 kts 22°
2026-05-06 17:33 14.15827 -83.34592 32948 ft 456 kts 21°
2026-05-06 17:34 14.21750 -83.32376 32950 ft 456 kts 21°
2026-05-06 17:34 14.27718 -83.30160 32969 ft 456 kts 21°
2026-05-06 17:35 14.33677 -83.27930 32971 ft 456 kts 22°
2026-05-06 17:35 14.39635 -83.25689 32970 ft 456 kts 22°
2026-05-06 17:36 14.48566 -83.22336 32976 ft 455 kts 21°
2026-05-06 17:36 14.54523 -83.20104 32973 ft 455 kts 21°
2026-05-06 17:37 14.60478 -83.17872 32977 ft 455 kts 21°
2026-05-06 17:37 14.66428 -83.15638 32995 ft 455 kts 21°
2026-05-06 17:38 14.72373 -83.13404 32994 ft 455 kts 21°
2026-05-06 17:38 14.78318 -83.11167 32993 ft 454 kts 21°
2026-05-06 17:39 14.84251 -83.08931 32993 ft 454 kts 21°
2026-05-06 17:39 14.90182 -83.06699 32997 ft 453 kts 21°
2026-05-06 17:40 14.96100 -83.04471 32996 ft 452 kts 21°
2026-05-06 17:40 15.02010 -83.02244 32996 ft 452 kts 21°
2026-05-06 17:41 15.07917 -83.00010 32996 ft 452 kts 21°
2026-05-06 17:41 15.13827 -82.97776 32994 ft 452 kts 21°
2026-05-06 17:42 15.19738 -82.95548 32994 ft 452 kts 21°
2026-05-06 17:42 15.25642 -82.93317 32999 ft 452 kts 21°
2026-05-06 17:43 15.31546 -82.91086 33000 ft 451 kts 21°
2026-05-06 17:43 15.37406 -82.88876 33000 ft 451 kts 21°
2026-05-06 17:44 15.43306 -82.86644 32998 ft 451 kts 21°
2026-05-06 17:44 15.49208 -82.84413 32998 ft 451 kts 21°
2026-05-06 17:45 15.55103 -82.82180 33005 ft 451 kts 21°
2026-05-06 17:45 15.60998 -82.79940 33013 ft 451 kts 21°
2026-05-06 17:46 15.66884 -82.77702 33016 ft 451 kts 21°
2026-05-06 17:46 15.72774 -82.75474 33019 ft 450 kts 21°
2026-05-06 17:47 15.78668 -82.73249 33019 ft 450 kts 21°
2026-05-06 17:47 15.84547 -82.71012 33020 ft 450 kts 21°
2026-05-06 17:48 15.90426 -82.68770 33023 ft 450 kts 21°
2026-05-06 17:48 15.96303 -82.66533 33022 ft 450 kts 21°
2026-05-06 17:49 16.02176 -82.64300 33019 ft 449 kts 21°
2026-05-06 17:49 16.07054 -82.62444 33017 ft 449 kts 21°
2026-05-06 17:50 16.12922 -82.60206 33013 ft 449 kts 21°
2026-05-06 17:50 16.18784 -82.57968 33010 ft 449 kts 21°
2026-05-06 17:51 16.24648 -82.55728 33010 ft 449 kts 21°
2026-05-06 17:51 16.30515 -82.53497 33009 ft 449 kts 21°
2026-05-06 17:52 16.36388 -82.51258 33006 ft 449 kts 21°
2026-05-06 17:52 16.42253 -82.49008 33006 ft 449 kts 21°
2026-05-06 17:53 16.48121 -82.46764 33006 ft 449 kts 21°
2026-05-06 17:53 16.53985 -82.44513 33007 ft 449 kts 21°
2026-05-06 17:54 16.59820 -82.42280 33009 ft 450 kts 21°
2026-05-06 17:54 16.65694 -82.40027 33020 ft 450 kts 21°
2026-05-06 17:55 16.71578 -82.37773 33026 ft 450 kts 21°
2026-05-06 17:55 16.77461 -82.35521 33031 ft 451 kts 21°
2026-05-06 17:56 16.83350 -82.33264 33033 ft 451 kts 21°
2026-05-06 17:56 16.89228 -82.31001 33035 ft 450 kts 21°
2026-05-06 17:57 16.95108 -82.28735 33037 ft 450 kts 21°
2026-05-06 17:57 17.00989 -82.26472 33033 ft 450 kts 21°
2026-05-06 17:58 17.06868 -82.24206 33032 ft 450 kts 21°
2026-05-06 17:58 17.12745 -82.21945 33029 ft 450 kts 21°
2026-05-06 17:59 17.18625 -82.19685 33033 ft 450 kts 21°
2026-05-06 17:59 17.24509 -82.17419 33030 ft 450 kts 21°
2026-05-06 18:00 17.30380 -82.15147 33023 ft 450 kts 21°
2026-05-06 18:00 17.36255 -82.12875 33025 ft 450 kts 21°
2026-05-06 18:01 17.42128 -82.10606 33020 ft 450 kts 20°
2026-05-06 18:01 17.47998 -82.08342 33017 ft 450 kts 20°
2026-05-06 18:02 17.53870 -82.06067 33016 ft 450 kts 21°
2026-05-06 18:02 17.59701 -82.03802 33021 ft 450 kts 20°
2026-05-06 18:03 17.65566 -82.01512 33023 ft 450 kts 20°
2026-05-06 18:03 17.71429 -81.99226 33022 ft 450 kts 20°
2026-05-06 18:04 17.77295 -81.96943 33025 ft 450 kts 21°
2026-05-06 18:04 17.83156 -81.94648 33028 ft 450 kts 21°
2026-05-06 18:05 17.89027 -81.92357 33032 ft 450 kts 20°
2026-05-06 18:05 17.94896 -81.90064 33034 ft 450 kts 20°
2026-05-06 18:06 18.00773 -81.87770 33041 ft 451 kts 20°
2026-05-06 18:06 18.06644 -81.85470 33042 ft 450 kts 21°
2026-05-06 18:07 18.12516 -81.83162 33039 ft 450 kts 21°
2026-05-06 18:07 18.18383 -81.80857 33037 ft 450 kts 21°
2026-05-06 18:08 18.24206 -81.78573 33033 ft 449 kts 21°
2026-05-06 18:08 18.30066 -81.76272 33035 ft 450 kts 21°
2026-05-06 18:09 18.35922 -81.73971 33035 ft 450 kts 21°
2026-05-06 18:09 18.41791 -81.71667 33038 ft 450 kts 21°
2026-05-06 18:10 18.47658 -81.69365 33038 ft 450 kts 21°
2026-05-06 18:10 18.53523 -81.67057 33043 ft 450 kts 21°
2026-05-06 18:11 18.59391 -81.64746 33051 ft 450 kts 20°
2026-05-06 18:11 18.65257 -81.62434 33052 ft 450 kts 20°
2026-05-06 18:12 18.71114 -81.60122 33055 ft 449 kts 21°
2026-05-06 18:12 18.76964 -81.57803 33053 ft 449 kts 20°
2026-05-06 18:13 18.82815 -81.55487 33048 ft 449 kts 20°
2026-05-06 18:13 18.88658 -81.53176 33044 ft 448 kts 20°
2026-05-06 18:14 18.94466 -81.50880 33041 ft 449 kts 20°
2026-05-06 18:14 19.00313 -81.48568 33041 ft 449 kts 20°
2026-05-06 18:15 19.06169 -81.46249 33045 ft 450 kts 20°
2026-05-06 18:15 19.12034 -81.43927 33051 ft 450 kts 20°
2026-05-06 18:16 19.17893 -81.41596 33056 ft 450 kts 21°
2026-05-06 18:16 19.23754 -81.39266 33057 ft 450 kts 20°
2026-05-06 18:17 19.29729 -81.37342 33056 ft 450 kts
2026-05-06 18:17 19.35979 -81.37010 33049 ft 450 kts
2026-05-06 18:18 19.42234 -81.36837 33043 ft 450 kts
2026-05-06 18:18 19.48499 -81.36650 33043 ft 450 kts
2026-05-06 18:19 19.54766 -81.36464 33045 ft 451 kts
2026-05-06 18:19 19.60994 -81.36284 33046 ft 451 kts
2026-05-06 18:20 19.67307 -81.36107 33050 ft 451 kts
2026-05-06 18:20 19.73578 -81.35932 33052 ft 451 kts
2026-05-06 18:21 19.79850 -81.35749 33055 ft 451 kts
2026-05-06 18:21 19.86121 -81.35565 33054 ft 451 kts
2026-05-06 18:22 19.92391 -81.35389 33049 ft 451 kts
2026-05-06 18:22 19.98613 -81.35212 33054 ft 450 kts
2026-05-06 18:23 20.04867 -81.35024 33063 ft 450 kts
2026-05-06 18:23 20.11120 -81.34841 33063 ft 449 kts
2026-05-06 18:24 20.17372 -81.34660 33059 ft 449 kts
2026-05-06 18:24 20.23625 -81.34486 33059 ft 449 kts
2026-05-06 18:25 20.29876 -81.34311 33065 ft 449 kts
2026-05-06 18:25 20.36122 -81.34135 33064 ft 449 kts
2026-05-06 18:26 20.42364 -81.33946 33064 ft 449 kts
2026-05-06 18:26 20.48601 -81.33767 33062 ft 448 kts
2026-05-06 18:27 20.54834 -81.33587 33060 ft 448 kts
2026-05-06 18:27 20.61072 -81.33406 33065 ft 448 kts
2026-05-06 18:28 20.67304 -81.33219 33069 ft 448 kts
2026-05-06 18:28 20.73537 -81.33034 33068 ft 448 kts
2026-05-06 18:29 20.79761 -81.32854 33065 ft 447 kts
2026-05-06 18:29 20.85982 -81.32673 33061 ft 447 kts
2026-05-06 18:30 20.92198 -81.32496 33064 ft 447 kts
2026-05-06 18:30 20.98411 -81.32323 33065 ft 447 kts
2026-05-06 18:31 21.04621 -81.32138 33061 ft 447 kts
2026-05-06 18:31 21.10840 -81.31950 33063 ft 447 kts
2026-05-06 18:32 21.17051 -81.31767 33063 ft 447 kts
2026-05-06 18:32 21.23222 -81.31588 33062 ft 446 kts
2026-05-06 18:33 21.29474 -81.31403 33063 ft 446 kts
2026-05-06 18:33 21.35691 -81.31214 33067 ft 447 kts
2026-05-06 18:34 21.41906 -81.31038 33065 ft 447 kts
2026-05-06 18:34 21.48085 -81.30864 33068 ft 447 kts
2026-05-06 18:35 21.54307 -81.30677 33070 ft 447 kts
2026-05-06 18:35 21.60526 -81.30494 33076 ft 447 kts
2026-05-06 18:36 21.66735 -81.30318 33075 ft 446 kts
2026-05-06 18:36 21.72939 -81.30135 33073 ft 446 kts
2026-05-06 18:37 21.78138 -81.29978 33072 ft 446 kts
2026-05-06 18:37 21.85349 -81.29767 33071 ft 446 kts
2026-05-06 18:38 21.91549 -81.29584 33073 ft 446 kts
2026-05-06 18:38 21.97751 -81.29408 33070 ft 446 kts